Location: Nag� el Ma?a??a
(24.0667°N, 32.8833°E)
Time: 15:03:12
(UTC+00:00)

Envisat - Pass Details

Date: 25 September 2021
Orbit: 764 x 766 km, 98.2° (Epoch: 16 October)

Event Time Altitude Azimuth Distance (km) Brightness Sun altitude
Rises 02:22:31 0° 20° (NNE) 3,227 6.6 -18.1°
Reaches altitude 10° 02:24:55 10° 27° (NNE) 2,298 5.9 -17.5°
Maximum altitude 02:29:46 46° 100° (E) 1,020 4.1 -16.4°
Drops below altitude 10° 02:34:36 10° 173° (S) 2,290 5.5 -15.3°
Sets 02:36:58 0° 179° (S) 3,213 6.2 -14.8°
